Weather History for Pompano Beach, FL

Change the Weather History Date:

Wednesday, December 12, 2012

  Actual Average Record
Temperature  
Mean Temperature 76 °F -  
Max Temperature 80 °F 78 °F 87 °F (1986)
Min Temperature 73 °F 60 °F 30 °F (1957)
Cooling Degree Days 12    
Growing Degree Days 26 (Base 50)    
Moisture  
Dew Point 73 °F    
Average Humidity 89    
Maximum Humidity 100    
Minimum Humidity 74    
Precipitation  
Precipitation 0.00 in - - ()
Sea Level Pressure  
Sea Level Pressure 30.06 in    
Wind  
Wind Speed 9 mph (South)    
Max Wind Speed 18 mph    
Max Gust Speed 24 mph    
Visibility 10 miles    
Events      
Averages and records for this station are not official NWS values.
T = Trace of Precipitation, MM = Missing Value Source: NWS Daily Summary

Daily Weather History Graph

Daily Weather History Graph

Search for Another Location

Airport:

Trip Planner

Search our weather history database for the weather conditions in past years. The results will help you decide how hot, cold, wet, or windy it might be!

Date:

Astronomy

Dec. 12, 2012 Rise Set
Actual Time 6:58 AM EST 5:30 PM EST
Civil Twilight 6:33 AM EST 5:55 PM EST
Nautical Twilight 6:04 AM EST 6:24 PM EST
Astronomical Twilight 5:36 AM EST 6:52 PM EST
Moon 6:03 AM EST (12/12) 5:03 PM EST (12/12)
Length of Visible Light 11h 21m
Length of Day
10h 31m
Waning Crescent, 1% of the Moon is Illuminated
Dec 12
Waning Crescent
Dec 13
New
Dec 20
First Quarter
Dec 28
Full
Jan 4
Last Quarter

Hourly Weather History & Observations

Time (EST) Temp. Heat Index Dew Point Humidity Pressure Visibility Wind Dir Wind Speed Gust Speed Precip Events Conditions
12:53 AM 75.9 °F - 75.0 °F 97% 30.05 in 10.0 mi South 6.9 mph - N/A   Partly Cloudy
1:53 AM 75.9 °F - 75.0 °F 97% 30.05 in 10.0 mi South 6.9 mph - N/A   Partly Cloudy
2:53 AM 75.9 °F - 75.0 °F 97% 30.04 in 10.0 mi South 5.8 mph - N/A   Clear
3:40 AM 75.2 °F - 73.4 °F 94% 30.05 in 10.0 mi South 10.4 mph - N/A   Mostly Cloudy
3:50 AM 75.2 °F - 73.4 °F 94% 30.05 in 10.0 mi South 6.9 mph - N/A   Scattered Clouds
3:53 AM 75.9 °F - 73.9 °F 94% 30.05 in 10.0 mi SSE 9.2 mph - N/A   Scattered Clouds
4:53 AM 75.9 °F - 73.9 °F 94% 30.03 in 10.0 mi SSE 10.4 mph - N/A   Partly Cloudy
5:53 AM 75.9 °F - 73.0 °F 91% 30.05 in 10.0 mi SSE 10.4 mph - N/A   Partly Cloudy
6:53 AM 75.9 °F - 73.0 °F 91% 30.06 in 10.0 mi SSE 11.5 mph - N/A   Mostly Cloudy
7:11 AM 75.2 °F - 73.4 °F 94% 30.05 in 10.0 mi SSE 18.4 mph - N/A   Scattered Clouds
7:53 AM 75.9 °F - 73.0 °F 91% 30.09 in 10.0 mi South 8.1 mph - N/A   Overcast
8:53 AM 77.0 °F - 73.0 °F 88% 30.10 in 10.0 mi South 12.7 mph 19.6 mph N/A   Scattered Clouds
9:53 AM 78.1 °F - 73.0 °F 84% 30.11 in 10.0 mi South 15.0 mph - N/A   Clear
10:53 AM 79.0 °F - 72.0 °F 79% 30.10 in 10.0 mi South 13.8 mph - N/A   Partly Cloudy
11:53 AM 80.1 °F 84.2 °F 73.0 °F 79% 30.08 in 10.0 mi South 12.7 mph 24.2 mph N/A   Partly Cloudy
12:53 PM 79.0 °F - 71.1 °F 77% 30.05 in 10.0 mi SSE 16.1 mph 23.0 mph N/A   Partly Cloudy
1:53 PM 79.0 °F - 70.0 °F 74% 30.04 in 10.0 mi South 12.7 mph - N/A   Mostly Cloudy
2:53 PM 78.1 °F - 72.0 °F 81% 30.03 in 10.0 mi South 12.7 mph - N/A   Mostly Cloudy
3:53 PM 77.0 °F - 71.1 °F 82% 30.04 in 10.0 mi South 11.5 mph - N/A   Clear
4:53 PM 77.0 °F - 72.0 °F 84% 30.05 in 10.0 mi South 3.5 mph - N/A   Mostly Cloudy
5:53 PM 77.0 °F - 70.0 °F 79% 30.07 in 10.0 mi SSW 3.5 mph - N/A   Mostly Cloudy
6:53 PM 75.9 °F - 71.1 °F 85% 30.08 in 10.0 mi South 3.5 mph - N/A   Scattered Clouds
7:53 PM 75.9 °F - 72.0 °F 87% 30.08 in 10.0 mi SSE 4.6 mph - N/A   Scattered Clouds
8:53 PM 75.9 °F - 73.0 °F 91% 30.08 in 10.0 mi South 6.9 mph - N/A   Clear
9:53 PM 75.0 °F - 73.0 °F 94% 30.08 in 10.0 mi South 4.6 mph - N/A   Clear
10:53 PM 73.9 °F - 73.0 °F 97% 30.08 in 10.0 mi Calm Calm - N/A   Clear
11:53 PM 73.0 °F - 73.0 °F 100% 30.06 in 10.0 mi Calm Calm - N/A   Clear